Hourly Data Report for June 29, 2015

All times are specified in Local Standard Time (LST). Add 1 hour to adjust for Daylight Saving Time where and when it is observed.

Metadata including Station Name, Province, Latitude, Longitude, Elevation, Climate ID, WMO ID, TC ID
LUNENBURG
NOVA SCOTIA
Latitude: 44°21'36.094" N Longitude: 64°17'46.082" W Elevation: 3.80 m
Climate ID: 8203210 WMO ID: TC ID: XLB
Hourly Data Report for June 29, 2015
Temp Definition
°C

Dew Point Temp Definition
°C

Rel Hum Definition
%

Wind Dir Definition
10's deg
Wind Spd Definition
km/h

Visibility Definition
km

Stn Press Definition
kPa

Hmdx Definition

Wind Chill Definition

Weather Definition

00:00 12.6 LegendMM LegendMM 10 37 100.70 LegendNANA
01:00 12.7 LegendMM LegendMM 10 36 100.61 LegendNANA
02:00 12.8 LegendMM LegendMM 9 33 100.54 LegendNANA
03:00 13.0 LegendMM LegendMM 9 27 100.49 LegendNANA
04:00 12.8 LegendMM LegendMM 9 20 100.50 LegendNANA
05:00 12.8 LegendMM LegendMM 11 19 100.46 LegendNANA
06:00 12.8 LegendMM LegendMM 19 12 100.51 LegendNANA
07:00 12.9 LegendMM LegendMM 21 14 100.54 LegendNANA
08:00 12.9 LegendMM LegendMM 22 22 100.55 LegendNANA
09:00 12.9 LegendMM LegendMM 22 27 100.57 LegendNANA
10:00 13.9 LegendMM LegendMM 22 17 100.60 LegendNANA
11:00 15.6 LegendMM LegendMM 28 31 100.68 LegendNANA
12:00 16.8 LegendMM LegendMM 27 31 100.74 LegendNANA
13:00 17.8 LegendMM LegendMM 27 29 100.81 LegendNANA
14:00 18.9 LegendMM LegendMM 28 33 100.83 LegendNANA
15:00 19.1 LegendMM LegendMM 27 31 100.87 LegendNANA
16:00 19.9 LegendMM LegendMM 29 29 100.88 LegendNANA
17:00 18.1 LegendMM LegendMM 23 16 100.94 LegendNANA
18:00 16.3 LegendMM LegendMM 21 19 100.96 LegendNANA
19:00 17.1 LegendMM LegendMM 21 16 101.03 LegendNANA
20:00 17.7 LegendMM LegendMM 27 24 101.13 LegendNANA
21:00 16.9 LegendMM LegendMM 25 15 101.21 LegendNANA
22:00 15.3 LegendMM LegendMM 22 13 101.25 LegendNANA
23:00 14.9 LegendMM LegendMM 22 14 101.26 LegendNANA

Notes on Data Quality.

Legend
  • E = Estimated
  • M = Missing
  • NA = Not Available
  • ‡ = Partner data that is not subject to review by the National Climate Archives